Hourly Data Report for June 01, 2021

DRYDEN REGIONAL
ONTARIO
Current Station Operator: NAVCAN

49°49'39.000" N
92°44'39.000" W
412.70 m
6032125
71527
YHD

Download Data

Hourly Data (June 2021)
Hourly Data Report for June 1, 2021
TIME
LST
Temp Definition
°C
Dew Point Definition
°C
Rel Hum Definition
%
Precip. Amount Definition
mm

Wind Dir Definition
10's deg

Wind Spd Definition
km/h
Visibility Definition
km
Stn Press Definition
kPa
Hmdx Definition


Wind Chill Definition


Weather Definition


00:00 12.0 6.5 69 0.0 25 9 16.1 97.06     LegendNANA
01:00 11.3 6.3 71 0.0 22 11 16.1 97.06     LegendNANA
02:00 11.7 7.1 73 0.0 21 9 16.1 97.05     LegendNANA
03:00 10.9 7.2 78 0.0 21 13 16.1 97.04     LegendNANA
04:00 10.5 7.0 79 0.0 21 11 16.1 97.03     LegendNANA
05:00 11.0 7.2 77 0.0 20 13 16.1 97.04     LegendNANA
06:00 12.7 7.6 71 0.0 21 11 16.1 97.04     LegendNANA
07:00 16.1 8.2 59 0.0 23 13 16.1 97.03     LegendNANA
08:00 19.0 7.4 47 0.0 25 18 16.1 97.02     LegendNANA
09:00 19.6 6.0 41 0.0 23 22 16.1 97.01     LegendNANA
10:00 19.9 5.5 39 0.0 22 17 16.1 96.97     LegendNANA
11:00 21.6 5.6 35 0.0 23 18 16.1 96.93     LegendNANA
12:00 22.6 1.6 25 0.0 23 18 16.1 96.89     LegendNANA
13:00 22.7 2.4 26 0.0 18 18 16.1 96.84     LegendNANA
14:00 23.2 2.7 26 0.0 18 18 16.1 96.79     LegendNANA
15:00 23.6 2.5 25 0.0 15 17 16.1 96.76     LegendNANA
16:00 23.4 2.3 25 0.0 21 17 16.1 96.72     LegendNANA
17:00 23.2 2.7 26 0.0 21 8 16.1 96.67     LegendNANA
18:00 23.3 1.0 23 0.0 20 11 16.1 96.62     LegendNANA
19:00 22.5 3.2 28 0.0 20 8 16.1 96.61     LegendNANA
20:00 20.3 5.3 37 0.0 17 8 16.1 96.58     LegendNANA
21:00 19.5 4.2 36 0.0 17 9 16.1 96.57     LegendNANA
22:00 18.1 5.4 43 0.0 19 13 16.1 96.55     LegendNANA
23:00 17.1 5.5 46 0.0 23 15 16.1 96.53     LegendNANA

Notes on Data Quality.

Legend

  • E = Estimated
  • M = Missing
  • NA = Not Available*
  • [empty] = Indicates an unobserved value
Date modified: